Change the Weather History Date:

Friday, May 10, 2013

  Actual Average Record
Temperature  
Mean Temperature 86 °F 81 °F  
Max Temperature 95 °F 90 °F 102 °F (2006)
Min Temperature 77 °F 71 °F 54 °F (1961)
Degree Days  
Heating Degree Days 0 0  
Month to date heating degree days 0 0  
Since 1 July heating degree days 318 579  
Cooling Degree Days 21 16  
Month to date cooling degree days 120 149  
Year to date cooling degree days 910 880  
Growing Degree Days 36 (Base 50)    
Moisture  
Dew Point 72 °F    
Average Humidity 64    
Maximum Humidity 85    
Minimum Humidity 43    
Precipitation  
Precipitation 0.00 in 0.07 in 0.61 in (1993)
Month to date precipitation 0.00 0.70  
Year to date precipitation 2.32 5.23  
Sea Level Pressure  
Sea Level Pressure 29.83 in    
Wind  
Wind Speed 10 mph (ESE)    
Max Wind Speed 20 mph    
Max Gust Speed 24 mph    
Visibility 8 miles    
Events      
T = Trace of Precipitation, MM = Missing Value Source: NWS Daily Summary

Daily Weather History Graph

Daily Weather History Graph

Search for Another Location

Airport or City:

Trip Planner

Search our weather history database for the weather conditions in past years. The results will help you decide how hot, cold, wet, or windy it might be!

Date:

Astronomy

May. 10, 2013 Rise Set
Actual Time 6:49 AM CDT 8:09 PM CDT
Civil Twilight 6:24 AM CDT 8:34 PM CDT
Nautical Twilight 5:54 AM CDT 9:04 PM CDT
Astronomical Twilight 5:24 AM CDT 9:34 PM CDT
Moon 7:15 AM CDT (5/10) 8:58 PM CDT (5/10)
Length of Visible Light 14h 10m
Length of Day
13h 20m
New Moon, 0% of the Moon is Illuminated
May 10
New Moon
May 17
First Quarter
May 24
Full
May 31
Last Quarter
Jun 8
New

Hourly Weather History & Observations

Time (CDT) Temp. Heat Index Dew Point Humidity Pressure Visibility Wind Dir Wind Speed Gust Speed Precip Events Conditions
12:53 AM 78.8 °F - 73.4 °F 83% 29.84 in 8.0 mi SSE 13.8 mph - N/A   Overcast
1:53 AM 78.1 °F - 73.0 °F 84% 29.83 in 8.0 mi SSE 9.2 mph - N/A   Overcast
2:04 AM 78.8 °F - 73.4 °F 83% 29.83 in 8.0 mi SSE 10.4 mph - N/A   Overcast
2:53 AM 78.8 °F - 73.4 °F 83% 29.82 in 8.0 mi SE 9.2 mph - N/A   Overcast
3:53 AM 78.1 °F - 72.0 °F 81% 29.81 in 8.0 mi ESE 6.9 mph - N/A   Overcast
4:53 AM 78.1 °F - 73.0 °F 84% 29.79 in 8.0 mi SE 9.2 mph - N/A   Overcast
5:53 AM 78.1 °F - 73.0 °F 84% 29.80 in 7.0 mi SE 9.2 mph - N/A   Overcast
6:42 AM 78.8 °F - 73.4 °F 83% 29.82 in 7.0 mi SE 5.8 mph - N/A   Overcast
6:53 AM 78.1 °F - 73.0 °F 84% 29.82 in 7.0 mi SE 6.9 mph - N/A   Overcast
7:13 AM 78.8 °F - 73.4 °F 83% 29.83 in 6.0 mi SE 10.4 mph - N/A   Haze
7:36 AM 78.8 °F - 73.4 °F 83% 29.84 in 3.0 mi SE 6.9 mph - N/A   Haze
7:50 AM 78.8 °F - 73.4 °F 83% 29.84 in 3.0 mi SE 8.1 mph - N/A   Haze
7:53 AM 78.1 °F - 73.0 °F 84% 29.84 in 3.0 mi SE 6.9 mph - N/A   Haze
8:53 AM 80.1 °F 84.2 °F 73.0 °F 79% 29.85 in 6.0 mi SE 12.7 mph - N/A   Haze
9:51 AM 82.4 °F 88.2 °F 73.4 °F 74% 29.85 in 7.0 mi SSE 10.4 mph - N/A   Overcast
9:53 AM 82.0 °F 87.4 °F 73.0 °F 74% 29.84 in 7.0 mi SSE 11.5 mph - N/A   Mostly Cloudy
10:51 AM 84.2 °F 90.9 °F 73.4 °F 70% 29.85 in 7.0 mi South 6.9 mph - N/A   Scattered Clouds
10:53 AM 84.0 °F 90.2 °F 73.0 °F 69% 29.85 in 7.0 mi SSE 5.8 mph - N/A   Mostly Cloudy
11:01 AM 84.2 °F 89.6 °F 71.6 °F 66% 29.85 in 8.0 mi SSE 6.9 mph - N/A   Mostly Cloudy
11:48 AM 86.0 °F 91.8 °F 71.6 °F 62% 29.85 in 8.0 mi Variable 4.6 mph - N/A   Scattered Clouds
11:53 AM 84.9 °F 90.7 °F 72.0 °F 65% 29.85 in 8.0 mi Calm Calm - N/A   Scattered Clouds
12:53 PM 90.0 °F 96.4 °F 71.1 °F 54% 29.85 in 8.0 mi North 3.5 mph - N/A   Mostly Cloudy
1:53 PM 91.0 °F 97.6 °F 71.1 °F 52% 29.83 in 9.0 mi ENE 10.4 mph - N/A   Mostly Cloudy
2:53 PM 95.0 °F 102.5 °F 71.1 °F 46% 29.80 in 9.0 mi North 8.1 mph - N/A   Partly Cloudy
3:53 PM 93.9 °F 100.8 °F 71.1 °F 47% 29.77 in 10.0 mi ENE 9.2 mph 18.4 mph N/A   Partly Cloudy
4:53 PM 95.0 °F 101.3 °F 70.0 °F 44% 29.75 in 10.0 mi NE 16.1 mph 19.6 mph N/A   Scattered Clouds
5:53 PM 91.0 °F 98.2 °F 72.0 °F 53% 29.75 in 10.0 mi East 17.3 mph - N/A   Scattered Clouds
6:53 PM 88.0 °F 93.8 °F 71.1 °F 57% 29.77 in 10.0 mi East 15.0 mph 23.0 mph N/A   Mostly Cloudy
7:53 PM 82.9 °F 88.0 °F 72.0 °F 69% 29.80 in 10.0 mi ENE 13.8 mph - N/A   Partly Cloudy
8:53 PM 80.1 °F 83.8 °F 72.0 °F 76% 29.84 in 10.0 mi East 15.0 mph 20.7 mph N/A   Partly Cloudy
9:53 PM 79.0 °F - 72.0 °F 79% 29.84 in 10.0 mi East 11.5 mph - N/A   Scattered Clouds
10:00 PM 78.8 °F - 71.6 °F 78% 29.85 in 10.0 mi East 12.7 mph - N/A   Mostly Cloudy
10:53 PM 79.0 °F - 71.1 °F 77% 29.88 in 10.0 mi ESE 8.1 mph - N/A   Overcast
11:53 PM 79.0 °F - 71.1 °F 77% 29.88 in 9.0 mi ENE 8.1 mph - N/A   Overcast